Regional Weather Roundup
Issued by NWS

Home | Current Version | Previous Version | Text Only | Print | Product List | Glossary On
Versions: 1 2 3 4 5 6 7 8 9 10 11 12 13 14 15 16 17 18 19 20 21 22 23 24 25 26 27 28
000
ASUS45 KSLC 220710
RWRUT

UTAH REGIONAL WEATHER ROUNDUP
NATIONAL WEATHER SERVICE SALT LAKE CITY UT
1200 AM MST SUN JAN 22 2017

UTZ001>011-023>025-220800-

NORTHERN UTAH

CITY           SKY/WX    TMP DP  RH WIND       PRES   REMARKS
BRIGHAM CITY     N/A     31  25  78 CALM      29.94R
HILL AFB       CLOUDY    30  25  80 S6        29.93R WCI  24
LOGAN          FOG       26  26 100 CALM      29.92R VSB 1/2
OGDEN          FLURRIES  31  26  82 S9        29.93R WCI  23
SALT LAKE CITY MOCLDY    31  27  85 SE9       29.95R WCI  23
TOOELE VALLEY  PTCLDY    28  23  80 SW7       29.95R WCI  21
WENDOVER       CLEAR     23  19  86 NE7       29.92R WCI  15
HEBER CITY     CLOUDY    21  18  86 CALM      29.93R
WEST JORDAN    MOCLDY    28  26  93 SW7       29.96R WCI  21

$$

UTZ011>015-024>027-220800-

CENTRAL/NORTHEAST UTAH

CITY           SKY/WX    TMP DP  RH WIND       PRES   REMARKS
PROVO AIRPORT  FOG       19  16  88 S5        29.98R VSB 1/4 WCI  12
MOAB/CANYONLAN CLEAR     32  25  75 W7        29.94R WCI  26
DELTA          CLEAR     18  18 100 E5        29.97R WCI  11
PRICE          CLEAR     19  13  77 CALM      29.91R
RICHFIELD      CLEAR     18  18 100 CALM      30.02R
ROOSEVELT      CLOUDY    23  21  93 NW6       29.94R FOG     WCI  16
VERNAL         CLOUDY    27  23  85 CALM      29.91R FOG

$$

UTZ013>016-019>022-027-220800-

SOUTHERN UTAH

CITY           SKY/WX    TMP DP  RH WIND       PRES   REMARKS
BRYCE CANYON   PTCLDY    -2  -6  83 W9        29.99R WCI -18
CEDAR CITY     PTCLDY    22  14  71 S6        29.99R WCI  14
MILFORD        CLEAR     27  22  81 SW13      29.98R WCI  16
ST GEORGE      MOSUNNY   37  28  70 N6        30.05R WCI  33
HANKSVILLE     CLEAR     30  23  74 MISG      29.98S
KANAB          CLEAR     27  25  93 NE5       30.08R WCI  21
BLANDING       CLEAR     25  17  72 W7        30.01R WCI  17

$$

REGIONAL REPORTS     COLORADO/ARIZONA

CITY           SKY/WX    TMP DP  RH WIND       PRES   REMARKS
CRAIG, CO      CLOUDY    27  22  81 SW12      29.88R WCI  17
GRAND JUNCTION CLOUDY    32  28  85 CALM      29.91R
RIFLE, CO      CLOUDY    32  27  81 CALM      29.89R
MONTROSE, CO   CLOUDY    31  26  82 N7        29.94R WCI  24
CORTEZ, CO     CLOUDY    24  23  96 NE6       29.95R WCI  17
COLORADO CITY    N/A     25  23  93 CALM      30.06R
PAGE, AZ       CLEAR     37  24  59 NW6       30.01R WCI  32
GRAND CANYON   PTCLDY     9   6  88 E7        30.04S WCI  -2
KINGMAN, AZ    MOCLDY    36  21  54 SE6       30.05S WCI  31
FLAGSTAFF, AZ  CLOUDY    20  19  96 CALM      30.05R

$$

REGIONAL REPORTS    NEVADA/IDAHO/WYOMING

CITY           SKY/WX    TMP DP  RH WIND       PRES   REMARKS
LAS VEGAS, NV  CLOUDY    48  32  53 S6        30.01R
ELY, NY        MOCLDY    20  13  74 S16       29.93S WCI   6
ELKO, NV       CLOUDY    23  18  81 E6        29.86R WCI  16
POCATELLO, ID  CLOUDY    34  24  67 S14       29.87R WCI  25
BURLEY, ID     CLOUDY    34  24  67 SW8       29.86R WCI  27
FORT BRIDGER,    N/A     21  20  96 W20       29.88S WCI   6
EVANSTON, WY   CLOUDY    17  13  84 SW7       29.88R WCI   8
ROCK SPRINGS,  CLOUDY    18  14  84 SW18      29.83R WCI   2

$$




USA.gov is the U.S. government's official web portal to all federal, state and local government web resources and services.